Terug naar catalogus

EXPRESS AM-7

ActiefCommunicatieGEO
NORAD 40505·PAYLOAD·🇷🇺 Russia

Gelanceerd Mar 18, 2015 vanaf Baikonur Cosmodrome

Loading…

TLE

VersSource: Space-Track

Epoch: Sep 14, 2026, 13:59 UTC

1 40505U 15012A   26257.58307439  .00000143  00000-0  00000-0 0  9992
2 40505   0.0164 109.6717 0003151  67.9573  65.8379  1.00274251 41909

Volg EXPRESS AM-7 in realtime met AllMySat

Download on the App Store